User: anonymous   Login
Location: Unspecified
(0.0000°N, 0.0000°E)
Time: 18:31:27
(UTC+01:00)
Language:

Coronas F rocket - Orbit

View from above orbital plane
View from above orbital plane
View from above satellite
View from above satellite

Ground track
Ground track

The orbit data is extracted from the following two-line orbital elements,

1 26874U 01032B   17049.44219621 +.00101255 +29314-5 +18806-3 0  9997
2 26874 082.4527 008.7697 0002830 036.8949 323.2524 16.00997780874755
Epoch (UTC): 18 February 2017 10:36:45
Eccentricity: 0.0002830
inclination: 82.4527°
perigee height: 270 km
apogee height: 273 km
right ascension of ascending node: 8.7697°
argument of perigee: 36.8949°
revolutions per day: 16.00997780
mean anomaly at epoch: 323.2524°
orbit number at epoch: 87475

The dashed part of the orbit path shows where the satellite is in the earth's shadow,  

DLR